Weather History for Salinas, CA

Change the Weather History Date:

Friday, March 1, 2013

  Actual Average Record
Temperature  
Mean Temperature 61 °F 54 °F  
Max Temperature 80 °F 64 °F 80 °F (2013)
Min Temperature 41 °F 44 °F 30 °F (1939)
Degree Days  
Heating Degree Days 4 11  
Month to date heating degree days 4 11  
Since 1 July heating degree days 1759 1825  
Cooling Degree Days 0 0  
Month to date cooling degree days 0 0  
Year to date cooling degree days 0 0  
Growing Degree Days 10 (Base 50)    
Moisture  
Dew Point 44 °F    
Average Humidity 64    
Maximum Humidity 100    
Minimum Humidity 28    
Precipitation  
Precipitation 0.00 in 0.09 in 0.74 in (1970)
Month to date precipitation 0.00 0.09  
Year to date precipitation 1.60 5.18  
Since 1 July precipitation 8.24 9.29  
Sea Level Pressure  
Sea Level Pressure 30.37 in    
Wind  
Wind Speed 4 mph (SSE)    
Max Wind Speed 20 mph    
Max Gust Speed 22 mph    
Visibility 5 miles    
Events Fog    
T = Trace of Precipitation, MM = Missing Value Source: NWS Daily Summary

Daily Weather History Graph

Daily Weather History Graph

Search for Another Location

Airport:

Trip Planner

Search our weather history database for the weather conditions in past years. The results will help you decide how hot, cold, wet, or windy it might be!

Date:

Astronomy

Mar. 01, 2013 Rise Set
Actual Time 6:36 AM PST 6:01 PM PST
Civil Twilight 6:10 AM PST 6:27 PM PST
Nautical Twilight 5:40 AM PST 6:57 PM PST
Astronomical Twilight 5:10 AM PST 7:27 PM PST
Moon 10:31 PM PST (3/1) 8:34 AM PST (3/1)
Length of Visible Light 12h 16m
Length of Day
11h 24m
Waning Gibbous, 82% of the Moon is Illuminated
Mar 1
Waning Gibbous
Mar 4
Last Quarter
Mar 11
New
Mar 19
First Quarter
Mar 27
Full

Hourly Weather History & Observations

Time (PST) Temp. Windchill Dew Point Humidity Pressure Visibility Wind Dir Wind Speed Gust Speed Precip Events Conditions
12:03 AM 48.2 °F - 46.4 °F 93% 30.43 in 1.8 mi Calm Calm - N/A   Mostly Cloudy
12:12 AM 46.4 °F - 44.6 °F 93% 30.43 in 3.0 mi Calm Calm - N/A   Overcast
12:45 AM 46.4 °F - 44.6 °F 93% 30.43 in 10.0 mi Calm Calm - N/A   Partly Cloudy
1:01 AM 44.6 °F - 42.8 °F 93% 30.43 in 3.0 mi Calm Calm - N/A   Mostly Cloudy
1:04 AM 44.6 °F 43.1 °F 42.8 °F 93% 30.43 in 1.8 mi ENE 3.5 mph - N/A   Mostly Cloudy
1:09 AM 44.6 °F - 42.8 °F 93% 30.43 in 0.8 mi Calm Calm - N/A   Mist
1:20 AM 44.6 °F - 42.8 °F 93% 30.43 in 0.2 mi Calm Calm - N/A Fog Fog
1:49 AM 44.6 °F - 44.6 °F 100% 30.43 in 0.8 mi Calm Calm - N/A   Mist
1:53 AM 44.1 °F 42.5 °F 44.1 °F 100% 30.46 in 0.5 mi South 3.5 mph - N/A Fog Fog
2:02 AM 44.6 °F - 42.8 °F 93% 30.43 in 0.2 mi Calm Calm - N/A Fog Fog
2:53 AM 44.1 °F - 43.0 °F 96% 30.45 in 0.2 mi Calm Calm - N/A Fog Fog
3:12 AM 44.6 °F - 42.8 °F 93% 30.42 in 1.0 mi Calm Calm - N/A   Mist
3:17 AM 44.6 °F - 42.8 °F 93% 30.42 in 3.0 mi Calm Calm - N/A   Mostly Cloudy
3:45 AM 44.6 °F - 42.8 °F 93% 30.41 in 1.5 mi Calm Calm - N/A   Overcast
4:00 AM 44.6 °F - 42.8 °F 93% 30.42 in 0.2 mi Calm Calm - N/A Fog Fog
4:53 AM 43.0 °F - 43.0 °F 100% 30.44 in 0.2 mi Calm Calm - N/A Fog Fog
5:28 AM 42.8 °F - 41.0 °F 93% 30.39 in 0.5 mi Calm Calm - N/A Fog Fog
5:37 AM 42.8 °F - 42.8 °F 100% 30.39 in 0.2 mi Calm Calm - N/A Fog Fog
5:53 AM 42.1 °F - 42.1 °F 100% 30.42 in 0.2 mi Calm Calm - N/A Fog Fog
6:44 AM 42.8 °F - 42.8 °F 100% 30.39 in 1.0 mi Calm Calm - N/A   Mist
6:51 AM 42.8 °F - 41.0 °F 93% 30.39 in 1.2 mi Calm Calm - N/A   Scattered Clouds
6:53 AM 42.1 °F - 42.1 °F 100% 30.42 in 1.0 mi Calm Calm - N/A   Mist
7:00 AM 42.8 °F - 41.0 °F 93% 30.39 in 0.8 mi Calm Calm - N/A   Mist
7:04 AM 42.8 °F - 42.8 °F 100% 30.38 in 1.2 mi Calm Calm - N/A   Partly Cloudy
7:14 AM 42.8 °F 40.1 °F 41.0 °F 93% 30.38 in 0.8 mi SSE 4.6 mph - N/A   Mist
7:24 AM 42.8 °F 40.1 °F 41.0 °F 93% 30.39 in 2.0 mi SSE 4.6 mph - N/A   Partly Cloudy
7:31 AM 42.8 °F - 41.0 °F 93% 30.39 in 9.0 mi Calm Calm - N/A   Partly Cloudy
7:53 AM 44.1 °F 41.5 °F 43.0 °F 96% 30.42 in 10.0 mi ENE 4.6 mph - N/A   Clear
8:53 AM 53.1 °F - 46.0 °F 77% 30.41 in 10.0 mi ESE 5.8 mph - N/A   Clear
10:53 AM 66.9 °F - 50.0 °F 54% 30.37 in 10.0 mi NNE 3.5 mph - N/A   Clear
11:53 AM 72.0 °F - 46.9 °F 41% 30.35 in 10.0 mi Calm Calm - N/A   Clear
1:53 PM 75.9 °F - 45.0 °F 33% 30.27 in 10.0 mi West 3.5 mph - N/A   Clear
2:53 PM 75.9 °F - 51.1 °F 42% 30.25 in 10.0 mi SW 11.5 mph - N/A   Clear
3:53 PM 79.0 °F - 43.0 °F 28% 30.24 in 10.0 mi Variable 3.5 mph - N/A   Clear
4:15 PM 71.6 °F - 48.2 °F 43% 30.21 in 10.0 mi West 12.7 mph - N/A   Clear
4:53 PM 66.0 °F - 48.9 °F 54% 30.24 in 10.0 mi WSW 13.8 mph - N/A   Clear
6:53 PM 59.0 °F - 48.9 °F 69% 30.27 in 10.0 mi NW 6.9 mph - N/A   Clear
7:53 PM 55.9 °F - 48.9 °F 77% 30.27 in 10.0 mi North 6.9 mph - N/A   Clear
8:53 PM 55.0 °F - 48.0 °F 77% 30.27 in 10.0 mi South 3.5 mph - N/A   Clear
9:53 PM 55.0 °F - 48.0 °F 77% 30.28 in 10.0 mi Calm Calm - N/A   Clear
10:53 PM 50.0 °F - 46.0 °F 86% 30.28 in 10.0 mi ESE 6.9 mph - N/A   Clear
11:53 PM 51.1 °F - 46.0 °F 83% 30.26 in 10.0 mi East 5.8 mph - N/A   Clear